Meteo Giornale » Osservazioni meteo Olanda » P11-B Sea
ore: 10:25 - Osservazioni Meteo P11-B Sea
Lat. 52° 22' N Lon. 3° 21' E Alt. 50 metri s.l.m.
17 °C
Poco Nuvoloso
Temp. 24 Ore
17 °C
20 °C
Ovest
27.8 Km/h
Dew point 12 °C
Umidità 72 %
Visibilità 10 Km
Il sole sorge alle ore 06:57
Il sole tramonta alle ore 20:35
| Data e Ora | Cielo e Fenomeni | T °C | DP °C | Um. % | Pres. hPa | Vis. km | Vento km/h | |
|---|---|---|---|---|---|---|---|---|
| Oggi h: 10:25 | Poco Nuvoloso | 17 | 12 | 72 | 1019 | 10 | O 27.8 | |
| Oggi h: 09:55 | Poco Nuvoloso | 17 | 11 | 67 | 1019 | 10 | N 29.6 | |
| Oggi h: 09:25 | Poco Nuvoloso | 17 | 11 | 67 | 1018 | 10 | O 29.6 | |
| Oggi h: 08:55 | Poco Nuvoloso | 17 | 11 | 67 | 1018 | 10 | O 29.6 | |
| Oggi h: 08:25 | Poco Nuvoloso | 17 | 11 | 67 | 1018 | 10 | O 29.6 | |
| Oggi h: 07:55 | Sereno | 17 | 12 | 72 | 1018 | 10 | O 27.8 | |
| Oggi h: 07:25 | Sereno | 17 | 12 | 72 | 1017 | 10 | O/NO 27.8 | |
| Oggi h: 06:55 | Sereno | 17 | 12 | 72 | 1017 | 10 | O/NO 31.5 | |
| Oggi h: 06:25 | Sereno | 18 | 12 | 67 | 1017 | 10 | O 31.5 | |
| Oggi h: 05:55 | Sereno | 18 | 12 | 67 | 1017 | 10 | N 29.6 | |
| Oggi h: 05:25 | Poco Nuvoloso | 18 | 12 | 67 | 1017 | 10 | O/NO 29.6 | |
| Oggi h: 04:55 | Sereno | 18 | 13 | 72 | 1016 | 10 | O/NO 27.8 | |
| Oggi h: 04:25 | Sereno | 18 | 13 | 72 | 1016 | 10 | O/NO 27.8 | |
| Oggi h: 03:55 | Sereno | 18 | 13 | 72 | 1016 | 10 | O/NO 24 | |
| Oggi h: 03:25 | Sereno | 18 | 14 | 77 | 1016 | 10 | O/NO 25.9 | |
| Oggi h: 02:55 | Sereno | 19 | 14 | 72 | 1016 | 10 | O/NO 29.6 | |
| Oggi h: 02:25 | Poco Nuvoloso | 19 | 14 | 72 | 1016 | 10 | O/NO 29.6 | |
| Oggi h: 01:55 | Sereno | 19 | 15 | 77 | 1016 | 10 | O/NO 24 | |
| Oggi h: 01:25 | Poco Nuvoloso | 19 | 14 | 72 | 1016 | 10 | O/NO 33.3 | |
| Oggi h: 00:55 | Poco Nuvoloso | 20 | 15 | 72 | 1016 | 10 | O/NO 29.6 | |
| Oggi h: 00:25 | Sereno | 20 | 14 | 68 | 1015 | 10 | O/NO 25.9 | |
| Ieri h: 23:55 | Sereno | 20 | 14 | 68 | 1015 | 10 | O/NO 29.6 | |
| Ieri h: 23:25 | Sereno | 20 | 14 | 68 | 1015 | 10 | O/NO 25.9 | |
| Ieri h: 22:55 | Poco Nuvoloso | 19 | 15 | 77 | 1015 | 10 | O 22.2 | |
| Ieri h: 22:25 | Poco Nuvoloso | 19 | 15 | 77 | 1015 | 10 | O 16.7 | |
| Ieri h: 21:55 | Pioggia | 19 | 15 | 77 | 1014 | 9 | N 20.3 | |
| Ieri h: 21:25 | Nuvoloso | 20 | 15 | 72 | 1014 | 10 | O/NO 11.1 | |
| Ieri h: 20:55 | Sereno | 20 | 15 | 72 | 1014 | 10 | O 7.4 | |
| Ieri h: 20:25 | Sereno | 20 | 15 | 72 | 1013 | 10 | O 13 | |
| Ieri h: 19:55 | Sereno | 20 | 15 | 72 | 1013 | 10 | O 24 | |
| Ieri h: 19:25 | Sereno | 20 | 15 | 72 | 1013 | 10 | O 29.6 | |
| Ieri h: 18:55 | Sereno | 20 | 15 | 72 | 1012 | 10 | O 33.3 | |
| Ieri h: 18:25 | Poco Nuvoloso | 20 | 14 | 68 | 1012 | 10 | O 35.2 | |
| Ieri h: 17:55 | Poco Nuvoloso | 19 | 14 | 72 | 1012 | 10 | O 35.2 | |
| Ieri h: 17:25 | Poco Nuvoloso | 19 | 14 | 72 | 1011 | 10 | O 35.2 | |
| Ieri h: 16:55 | Poco Nuvoloso | 19 | 14 | 72 | 1011 | 10 | O 40.7 | |
| Ieri h: 16:25 | Nuvoloso | 19 | 14 | 72 | 1011 | 10 | N 40.7 | |
| Ieri h: 15:55 | Molto Nuvoloso | 19 | 14 | 72 | 1010 | 10 | O 46.3 | |
| Ieri h: 15:25 | Molto Nuvoloso | 18 | 13 | 72 | 1010 | 10 | N 42.6 | |
| Ieri h: 14:55 | Molto Nuvoloso | 18 | 13 | 72 | 1009 | 10 | O 40.7 | |
| Ieri h: 14:25 | Molto Nuvoloso | 18 | 13 | 72 | 1009 | 10 | O 44.4 | |
| Ieri h: 13:55 | Molto Nuvoloso | 18 | 12 | 67 | 1008 | 10 | O 44.4 | |
| Ieri h: 13:25 | Nuvoloso | 18 | 13 | 72 | 1008 | 10 | O 44.4 | |
| Ieri h: 12:55 | Nuvoloso | 18 | 12 | 67 | 1007 | 10 | O 40.7 | |
| Ieri h: 12:25 | Nuvoloso | 17 | 12 | 72 | 1007 | 10 | O/SO 38.8 | |
| Ieri h: 11:55 | Nuvoloso | 17 | 12 | 72 | 1007 | 10 | O 38.8 | |
| Ieri h: 11:25 | Nuvoloso | 17 | 12 | 72 | 1006 | 10 | O 42.6 | |
| Ieri h: 10:55 | Molto Nuvoloso | 17 | 13 | 77 | 1006 | 10 | O/SO 48.1 | |



